Back to catalog

DELTA 1 DEB

AlivePO
NORAD 26036·DEBRIS·🇺🇸 United States

Launched Jun 12, 1975 from Vandenberg Space Force Base

Loading…

Next Passes (next 24 hours)

TLE

FreshSource: Space-Track

Epoch: Sep 14, 2026, 09:52 UTC

1 26036U 75052KA  26257.41161092  .00009639  00000-0  10233-2 0  9990
2 26036  99.9313 149.7378 0050660 137.3790 223.1369 14.88393322447755

Track DELTA 1 DEB in real time with AllMySat

Download on the App Store